GEC8502 EKCH-EDDH

Flight info

Callsign GEC8502
Flight time 0h 30m
Altitude 24000
Route NEXEN T503 MICOS N850 BOGMU BOGMU3P
Aircraft B77L/H-SDE1E2E3FGHIJ2J3J4J5M1RWXY/LB1D1

Departure

Time 2026-04-23 18:09
Airport Copenhagen Kastrup Airport (EKCH)

Arrival

Time 2026-04-23 18:39
Airport Hamburg Helmut Schmidt Airport (EDDH)
Time Latitude Longitude Altitude Speed Heading
2026-04-23 17:30 55.61874 12.67132 32 ft 0 kts 80°
2026-04-23 17:51 55.61871 12.67097 32 ft 2 kts 80°
2026-04-23 17:52 55.61868 12.67069 32 ft 2 kts 89°
2026-04-23 17:52 55.61875 12.67014 32 ft 2 kts 117°
2026-04-23 17:52 55.61883 12.66991 32 ft 2 kts 130°
2026-04-23 17:53 55.61908 12.66956 32 ft 2 kts 156°
2026-04-23 17:53 55.61921 12.66948 32 ft 0 kts 168°
2026-04-23 17:53 55.61926 12.66946 32 ft 0 kts 169°
2026-04-23 18:00 55.61925 12.66946 32 ft 0 kts 169°
2026-04-23 18:00 55.61903 12.66953 32 ft 6 kts 170°
2026-04-23 18:00 55.61825 12.66980 32 ft 13 kts 169°
2026-04-23 18:00 55.61700 12.67018 32 ft 19 kts 168°
2026-04-23 18:01 55.61562 12.67076 32 ft 17 kts 168°
2026-04-23 18:01 55.61443 12.67118 31 ft 16 kts 170°
2026-04-23 18:01 55.61328 12.67102 28 ft 16 kts 204°
2026-04-23 18:01 55.61300 12.66938 28 ft 15 kts 301°
2026-04-23 18:02 55.61337 12.66835 29 ft 14 kts 303°
2026-04-23 18:02 55.61412 12.66631 31 ft 15 kts 302°
2026-04-23 18:02 55.61477 12.66455 32 ft 17 kts 304°
2026-04-23 18:02 55.61557 12.66247 32 ft 19 kts 303°
2026-04-23 18:03 55.61644 12.66015 32 ft 21 kts 303°
2026-04-23 18:03 55.61730 12.65775 32 ft 23 kts 302°
2026-04-23 18:03 55.61823 12.65521 31 ft 25 kts 301°
2026-04-23 18:03 55.61923 12.65245 31 ft 27 kts 303°
2026-04-23 18:04 55.61999 12.64960 32 ft 22 kts 245°
2026-04-23 18:04 55.61876 12.64793 32 ft 22 kts 214°
2026-04-23 18:04 55.61742 12.64637 34 ft 22 kts 212°
2026-04-23 18:04 55.61700 12.64589 33 ft 2 kts 213°
2026-04-23 18:05 55.61638 12.64518 33 ft 15 kts 213°
2026-04-23 18:05 55.61521 12.64383 33 ft 20 kts 212°
2026-04-23 18:05 55.61376 12.64219 34 ft 25 kts 214°
2026-04-23 18:05 55.61203 12.64021 33 ft 30 kts 214°
2026-04-23 18:06 55.60990 12.63778 30 ft 36 kts 213°
2026-04-23 18:06 55.60776 12.63532 29 ft 33 kts 214°
2026-04-23 18:06 55.60580 12.63283 29 ft 30 kts 220°
2026-04-23 18:06 55.60448 12.63133 31 ft 15 kts 171°
2026-04-23 18:07 55.60410 12.63167 31 ft 0 kts 138°
2026-04-23 18:07 55.60395 12.63190 31 ft 6 kts 137°
2026-04-23 18:07 55.60347 12.63280 31 ft 12 kts 125°
2026-04-23 18:08 55.60354 12.63365 31 ft 11 kts 47°
2026-04-23 18:08 55.60431 12.63489 30 ft 47 kts 41°
2026-04-23 18:08 55.60888 12.64189 30 ft 124 kts 41°
2026-04-23 18:08 55.61706 12.65450 117 ft 179 kts 42°
2026-04-23 18:09 55.62552 12.66891 1213 ft 159 kts 40°
2026-04-23 18:09 55.63376 12.68128 1771 ft 166 kts 36°
2026-04-23 18:09 55.64312 12.69531 2191 ft 183 kts 37°
2026-04-23 18:09 55.65309 12.71075 2691 ft 197 kts 37°
2026-04-23 18:10 55.66374 12.72658 3380 ft 201 kts 36°
2026-04-23 18:10 55.67440 12.74240 3890 ft 205 kts 36°
2026-04-23 18:10 55.68544 12.75886 4193 ft 209 kts 36°
2026-04-23 18:10 55.69438 12.77821 5058 ft 211 kts 63°
2026-04-23 18:11 55.69673 12.80412 5774 ft 223 kts 95°
2026-04-23 18:11 55.69047 12.82972 6320 ft 236 kts 131°
2026-04-23 18:11 55.67661 12.84463 6935 ft 239 kts 171°
2026-04-23 18:11 55.65998 12.84226 7402 ft 239 kts 211°
2026-04-23 18:12 55.64501 12.82431 7724 ft 256 kts 225°
2026-04-23 18:12 55.62940 12.80194 8193 ft 276 kts 225°
2026-04-23 18:12 55.61301 12.77840 8724 ft 294 kts 225°
2026-04-23 18:12 55.59706 12.75562 9428 ft 301 kts 225°
2026-04-23 18:13 55.58040 12.73191 10236 ft 306 kts 225°
2026-04-23 18:13 55.56360 12.70796 10787 ft 320 kts 225°
2026-04-23 18:13 55.54575 12.68253 11289 ft 338 kts 225°
2026-04-23 18:13 55.52661 12.65532 11793 ft 355 kts 225°
2026-04-23 18:14 55.50697 12.62746 12307 ft 372 kts 224°
2026-04-23 18:14 55.48647 12.59846 12828 ft 386 kts 224°
2026-04-23 18:14 55.46530 12.56862 13640 ft 393 kts 224°
2026-04-23 18:14 55.44391 12.53854 14517 ft 397 kts 224°
2026-04-23 18:15 55.42214 12.50799 15425 ft 400 kts 224°
2026-04-23 18:15 55.40069 12.47792 16254 ft 403 kts 223°
2026-04-23 18:15 55.37710 12.44491 17119 ft 407 kts 223°
2026-04-23 18:15 55.35420 12.41293 17950 ft 410 kts 223°
2026-04-23 18:16 55.33186 12.38177 18716 ft 414 kts 223°
2026-04-23 18:16 55.30930 12.35034 19410 ft 419 kts 223°
2026-04-23 18:16 55.28644 12.31857 20090 ft 424 kts 223°
2026-04-23 18:17 55.24010 12.25431 21474 ft 432 kts 223°
2026-04-23 18:17 55.21645 12.22160 22156 ft 436 kts 223°
2026-04-23 18:17 55.19259 12.18867 22804 ft 440 kts 223°
2026-04-23 18:17 55.16889 12.15600 23441 ft 443 kts 223°
2026-04-23 18:18 55.14449 12.12242 24008 ft 447 kts 223°
2026-04-23 18:18 55.11896 12.08737 24109 ft 446 kts 223°
2026-04-23 18:18 55.09371 12.05280 24116 ft 443 kts 223°
2026-04-23 18:18 55.06836 12.01815 24119 ft 445 kts 223°
2026-04-23 18:19 55.04401 11.98488 24117 ft 444 kts 223°
2026-04-23 18:19 55.02052 11.94844 24125 ft 439 kts 228°
2026-04-23 18:19 54.99860 11.91220 24122 ft 439 kts 229°
2026-04-23 18:19 54.97643 11.87550 24122 ft 439 kts 228°
2026-04-23 18:20 54.95424 11.83884 24122 ft 439 kts 229°
2026-04-23 18:20 54.93219 11.80245 24125 ft 439 kts 228°
2026-04-23 18:20 54.91033 11.76645 24132 ft 439 kts 228°
2026-04-23 18:20 54.88810 11.72990 24128 ft 439 kts 228°
2026-04-23 18:21 54.86584 11.69336 24128 ft 439 kts 228°
2026-04-23 18:21 54.84308 11.65606 24128 ft 439 kts 228°
2026-04-23 18:21 54.82081 11.61962 24128 ft 439 kts 228°
2026-04-23 18:21 54.79828 11.58284 24135 ft 440 kts 228°
2026-04-23 18:22 54.77597 11.54646 24122 ft 436 kts 228°
2026-04-23 18:22 54.75399 11.51070 23914 ft 435 kts 228°
2026-04-23 18:22 54.73188 11.47478 23645 ft 435 kts 228°
2026-04-23 18:22 54.70952 11.43851 23413 ft 434 kts 228°
2026-04-23 18:23 54.69466 11.41445 23295 ft 433 kts 228°
2026-04-23 18:23 54.64373 11.33217 22863 ft 429 kts 227°
2026-04-23 18:24 54.60036 11.26235 22474 ft 426 kts 227°
2026-04-23 18:24 54.57847 11.22720 22287 ft 425 kts 227°
2026-04-23 18:24 54.55648 11.19195 22159 ft 422 kts 227°
2026-04-23 18:25 54.51164 11.12022 22153 ft 425 kts 226°
2026-04-23 18:25 54.48866 11.08355 22157 ft 425 kts 226°
2026-04-23 18:25 54.46593 11.04735 22156 ft 424 kts 226°
2026-04-23 18:25 54.44238 11.00993 22158 ft 424 kts 226°
2026-04-23 18:26 54.41962 10.97382 22158 ft 423 kts 226°
2026-04-23 18:26 54.39674 10.93758 22024 ft 419 kts 226°
2026-04-23 18:26 54.37338 10.90065 21196 ft 422 kts 226°
2026-04-23 18:26 54.34960 10.86311 20471 ft 422 kts 226°
2026-04-23 18:27 54.32683 10.82725 19894 ft 418 kts 226°
2026-04-23 18:27 54.30298 10.78977 19310 ft 414 kts 226°
2026-04-23 18:27 54.28022 10.75407 18752 ft 410 kts 226°
2026-04-23 18:27 54.25882 10.72055 18229 ft 406 kts 226°
2026-04-23 18:28 54.23721 10.68678 17691 ft 403 kts 226°
2026-04-23 18:28 54.21643 10.65435 17185 ft 399 kts 226°
2026-04-23 18:28 54.19561 10.62191 16660 ft 396 kts 226°
2026-04-23 18:28 54.17453 10.58914 16137 ft 393 kts 226°
2026-04-23 18:29 54.15441 10.55790 15624 ft 390 kts 226°
2026-04-23 18:29 54.13452 10.52708 15126 ft 388 kts 226°
2026-04-23 18:29 54.11470 10.49643 14629 ft 385 kts 226°
2026-04-23 18:29 54.09340 10.46356 14095 ft 382 kts 226°
2026-04-23 18:30 54.07315 10.43235 13584 ft 380 kts 226°
2026-04-23 18:30 54.05171 10.39941 13045 ft 377 kts 226°
2026-04-23 18:30 54.03052 10.36693 12504 ft 374 kts 226°
2026-04-23 18:30 54.00930 10.33448 11978 ft 372 kts 226°
2026-04-23 18:31 53.98846 10.30276 11420 ft 370 kts 226°
2026-04-23 18:31 53.96854 10.26794 10767 ft 368 kts 230°
2026-04-23 18:31 53.94758 10.23905 10172 ft 372 kts 215°
2026-04-23 18:31 53.92233 10.22018 9825 ft 368 kts 196°
2026-04-23 18:32 53.89490 10.21657 9726 ft 352 kts 173°
2026-04-23 18:32 53.87124 10.22900 9508 ft 336 kts 149°
2026-04-23 18:32 53.85339 10.25425 9217 ft 319 kts 123°
2026-04-23 18:32 53.84397 10.28648 9020 ft 296 kts 97°
2026-04-23 18:33 53.84343 10.31970 8824 ft 271 kts 72°
2026-04-23 18:33 53.84621 10.35093 8663 ft 266 kts 89°
2026-04-23 18:33 53.84092 10.38152 8359 ft 271 kts 119°
2026-04-23 18:33 53.82776 10.40413 7900 ft 274 kts 149°
2026-04-23 18:34 53.80886 10.41368 7429 ft 271 kts 182°
2026-04-23 18:34 53.78973 10.40594 6890 ft 262 kts 217°
2026-04-23 18:34 53.77644 10.38316 6381 ft 243 kts 249°
2026-04-23 18:34 53.76879 10.35579 5887 ft 240 kts 254°
2026-04-23 18:35 53.76197 10.32968 5445 ft 239 kts 254°
2026-04-23 18:35 53.75483 10.30238 4996 ft 236 kts 254°
2026-04-23 18:35 53.74823 10.27718 4561 ft 234 kts 254°
2026-04-23 18:35 53.74150 10.25165 4129 ft 232 kts 254°
2026-04-23 18:36 53.73488 10.22641 3673 ft 230 kts 254°
2026-04-23 18:36 53.72849 10.20187 3232 ft 225 kts 256°
2026-04-23 18:36 53.72194 10.17651 2896 ft 232 kts 248°
2026-04-23 18:36 53.71244 10.15402 2544 ft 231 kts 239°
2026-04-23 18:37 53.70224 10.13348 2222 ft 226 kts 238°
2026-04-23 18:37 53.69218 10.11341 1910 ft 221 kts 239°
2026-04-23 18:37 53.68260 10.09407 1602 ft 204 kts 239°
2026-04-23 18:37 53.67372 10.07602 1328 ft 187 kts 239°
2026-04-23 18:38 53.66505 10.05841 1040 ft 172 kts 239°
2026-04-23 18:38 53.65777 10.04369 817 ft 152 kts 239°
2026-04-23 18:38 53.65107 10.03009 598 ft 144 kts 237°
2026-04-23 18:38 53.64451 10.01678 378 ft 138 kts 236°
2026-04-23 18:39 53.63832 10.00428 185 ft 137 kts 236°
2026-04-23 18:39 53.63222 9.99186 69 ft 126 kts 233°
2026-04-23 18:39 53.62727 9.98194 68 ft 91 kts 230°
2026-04-23 18:39 53.62555 9.97845 68 ft 13 kts 231°
2026-04-23 18:40 53.62477 9.97795 68 ft 11 kts 151°
2026-04-23 18:40 53.62434 9.97875 68 ft 5 kts 108°
2026-04-23 18:40 53.62432 9.97929 68 ft 5 kts 84°
2026-04-23 18:40 53.62445 9.98024 68 ft 10 kts 70°
2026-04-23 18:41 53.62509 9.98187 68 ft 18 kts 50°
2026-04-23 18:41 53.62612 9.98399 68 ft 25 kts 50°
2026-04-23 18:41 53.62746 9.98665 68 ft 31 kts 49°
2026-04-23 18:41 53.62842 9.98866 68 ft 7 kts 78°
2026-04-23 18:42 53.62794 9.98966 68 ft 15 kts 153°
2026-04-23 18:42 53.62689 9.99050 68 ft 10 kts 155°
2026-04-23 18:42 53.62667 9.99103 68 ft 5 kts 92°
2026-04-23 18:42 53.62681 9.99169 68 ft 5 kts 65°
2026-04-23 18:43 53.62694 9.99213 68 ft 0 kts 63°